SCP
0 0 0 0 0 0 0 0 0 0 0 0 0 0 -0 -0 -0 -0 -0 0 0 0 0 0 0 1 1 1 1 1 1 0 0 0 0 0 0 0 0 0 0 0 0
1 0 0 0 0 0 0 0 0 0 0 0 0 0 0 0 -0 -0 -0 -0 0 0 0 0 0 1 1 1 1 1 1 1 0 0 0 0 0 0 0 0 0 0 0
1 0 0 0 0 0 0 0 0 0 0 0 0 0 0 0 0 -0 -0 -0 -0 0 0 0 0 1 1 1 1 1 1 1 1 0 0 0 0 0 0 0 0 0 0
1 1 0 0 0 0 0 0 0 0 0 0 1 1 0 0 0 -0 -0 0 0 0 0 0 0 0 1 1 1 1 1 1 1 0 0 0 0 0 0 0 0 0 0
3 2 1 1 1 0 0 0 0 0 1 1 1 1 1 0 0 0 0 0 0 0 0 0 0 0 0 1 1 1 1 1 1 0 0 0 0 0 0 0 0 0 0
2 3 2 1 1 1 0 0 1 1 1 1 1 1 1 1 1 1 1 0 0 0 0 1 0 0 0 0 1 1 1 1 1 1 0 0 0 0 0 0 0 0 0
4 3 2 2 1 1 1 1 1 1 1 1 1 1 1 1 1 1 1 1 1 1 -0 0 0 0 0 0 0 1 1 1 1 1 0 0 0 0 0 0 0 0 0
2 5 4 3 2 2 2 1 1 2 2 2 3 1 1 1 0 0 0 1 1 0 -0 2 0 0 0 1 1 1 1 1 1 1 1 0 0 0 0 0 0 0 0
2 2 2 3 2 2 2 3 2 3 6 2 2 2 2 1 1 1 1 0 1 0 0 1 1 0 0 -0 1 1 1 1 0 1 1 1 0 0 0 0 0 0 0
3 2 3 2 3 4 2 5 7 6 4 3 2 2 1 1 1 1 1 1 1 0 0 0 0 0 -0 -1 0 1 1 0 0 0 1 1 1 0 0 0 0 0 0
3 3 3 3 3 4 2 1 0 0 0 0 1 0 1 2 2 2 1 1 2 2 0 0 0 0 -0 -1 0 2 1 0 0 0 0 1 1 0 0 0 0 1 0
4 3 2 1 1 1 1 1 0 0 0 0 0 0 0 0 0 2 1 0 0 0 -0 0 1 0 0 1 1 1 0 0 0 0 0 0 0 0 0 0 1 0 0
4 4 3 3 2 1 1 1 0 0 0 0 0 0 0 0 1 1 1 1 0 0 -0 0 0 0 0 0 0 0 0 0 0 0 0 0 0 0 0 0 0 0 0
2 2 3 3 3 3 3 2 1 1 0 0 0 1 0 0 0 1 1 1 0 0 1 1 0 0 1 1 0 0 0 0 0 0 0 0 0 0 0 0 0 0 0
1 2 2 2 2 3 3 3 2 1 1 1 1 1 1 1 1 1 1 1 1 0 0 0 1 1 0 0 0 0 0 0 0 0 0 0 0 0 0 0 0 0 0
1 1 2 2 2 2 3 3 2 2 2 2 1 2 2 1 1 1 0 1 1 0 0 0 0 -0 -0 0 0 0 0 0 0 0 0 0 0 0 0 0 0 0 0
0 1 0 0 1 1 2 2 2 1 1 1 1 1 1 1 1 0 0 0 0 0 0 0 1 0 0 0 0 0 0 0 0 0 0 0 0 0 0 0 0 0 0
0 0 0 0 0 0 1 1 0 0 0 0 0 0 0 0 1 1 1 0 0 0 0 0 1 1 0 0 0 0 0 0 0 0 0 0 0 0 0 0 0 0 0
0 0 0 0 0 0 0 0 0 0 0 0 0 0 0 0 0 0 0 0 0 0 1 1 0 1 0 0 0 0 0 0 0 0 0 0 0 0 0 0 0 0 0
0 0 0 0 0 0 0 0 0 0 0 0 0 0 0 0 0 0 0 0 1 1 1 1 1 0 0 0 0 0 0 0 0 0 0 0 0 0 0 0 0 0 0
0 0 0 0 0 0 0 0 0 0 0 0 0 0 0 0 0 0 0 0 0 1 0 1 0 0 0 0 0 0 0 0 0 0 0 0 0 0 0 0 0 0 0
0 0 0 0 0 0 0 0 0 0 0 0 0 0 0 0 0 0 0 0 0 0 0 1 1 0 0 0 0 0 0 0 0 0 0 0 0 0 0 0 0 0 0
0 0 0 0 0 0 0 0 0 0 0 0 0 0 0 0 0 0 0 0 0 0 0 0 0 0 1 0 0 0 0 0 1 0 0 0 0 0 0 0 0 0 0
0 0 0 0 0 0 0 0 0 0 0 0 0 0 0 0 0 0 0 0 0 0 0 0 0 1 1 0 0 0 0 0 0 0 0 0 0 0 0 0 0 0 0
0 0 0 0 0 0 0 0 0 -0 -0 -0 -0 0 0 0 0 0 0 0 0 0 0 0 0 0 0 0 0 0 0 0 0 0 0 0 0 0 0 0 0 0 0
0 0 0 0 0 0 0 0 0 -0 -0 -0 -0 -0 0 -0 0 0 0 0 0 0 0 0 0 0 0 0 0 0 0 0 0 0 0 0 0 0 0 0 0 0 0
Wind_Speed_500mb
62 57 53 47 43 38 33 27 22 18 15 16 16 17 16 13 12 9 9 12 15 18 18 19 20 19 17 15 17 24 26 26 24 26 23 24 25 22 22 23 23 26 31
62 59 55 50 46 40 33 28 25 23 19 18 18 18 19 18 16 13 15 17 16 21 22 23 25 24 20 20 20 22 25 25 26 26 28 28 27 25 25 26 26 26 29
65 61 57 52 48 41 36 32 30 30 26 22 21 21 23 24 22 19 19 16 18 21 23 25 29 30 26 23 22 21 21 26 26 27 29 30 30 28 27 27 29 29 28
68 64 62 59 51 46 42 39 34 33 29 28 26 25 29 29 29 27 23 22 19 20 20 26 30 33 29 26 24 25 24 24 28 30 27 28 32 29 28 29 30 31 30
75 70 66 61 55 51 49 45 41 40 36 33 31 27 27 32 31 32 25 26 29 17 12 24 29 31 27 26 26 26 26 23 23 25 26 29 29 31 31 30 30 32 33
75 73 70 65 58 54 54 52 49 45 40 35 33 30 28 32 32 30 26 23 14 14 12 23 30 31 29 25 27 26 31 28 24 22 29 32 33 33 33 35 32 33 34
63 63 70 67 64 62 63 57 51 46 39 31 26 23 23 25 26 22 4 13 8 11 20 33 31 36 33 27 29 28 33 35 33 31 34 35 35 34 32 35 36 35 35
73 81 76 69 66 67 67 61 51 46 40 28 17 11 7 20 8 2 15 23 16 27 29 25 37 34 43 53 38 29 31 38 39 35 38 39 37 34 32 34 33 35 36
72 75 66 60 50 54 61 64 52 49 38 31 21 16 7 5 27 14 33 16 27 41 48 49 46 44 53 69 57 37 29 33 37 42 39 40 41 39 33 32 35 36 37
69 70 63 57 45 39 41 49 53 39 34 34 26 16 11 6 8 19 29 47 50 53 70 66 55 57 61 69 47 35 27 29 35 37 43 37 41 39 34 31 30 32 33
60 60 61 60 54 36 48 64 59 55 32 27 53 50 51 49 35 30 46 59 66 60 92 79 85 79 74 53 52 35 36 30 31 39 41 39 39 38 34 31 32 31 33
66 66 67 66 64 82 80 77 67 79 92 91 100 105 91 54 47 59 41 50 61 76 78 86 84 71 73 74 68 55 40 31 31 43 41 39 39 40 36 35 36 37 38
73 71 72 70 64 60 60 85 91 79 59 82 98 91 76 75 73 62 40 59 58 62 75 77 72 63 53 54 49 50 36 31 32 41 38 39 40 41 41 39 40 42 43
53 59 67 68 59 61 72 69 67 60 65 75 75 81 71 65 68 53 71 73 77 69 70 79 64 48 49 65 50 43 37 25 31 35 35 39 40 39 42 42 43 44 42
50 50 50 50 55 60 57 54 55 58 65 69 73 64 60 62 57 62 63 79 68 68 73 67 51 58 61 50 47 46 35 29 29 31 31 34 37 39 40 41 42 39 33
41 46 45 43 42 42 46 46 48 50 51 52 50 49 49 50 56 58 63 60 55 57 62 56 53 53 59 49 48 40 35 30 28 29 26 28 31 37 39 36 32 29 26
36 36 36 34 33 33 33 32 31 29 28 27 27 33 36 41 44 47 44 36 38 37 51 58 48 49 53 51 41 42 33 30 28 25 24 27 32 35 34 30 27 24 19
36 35 34 30 28 26 21 16 14 14 17 20 21 24 28 30 36 33 32 34 36 38 41 58 55 65 63 57 40 34 30 28 26 28 26 27 32 30 29 27 23 21 19
40 35 31 31 31 29 24 18 15 13 14 17 22 26 27 27 30 34 35 37 40 39 43 58 58 63 66 58 36 32 33 28 29 30 28 28 29 27 28 25 22 21 21
44 42 38 39 36 32 26 20 17 18 22 28 33 35 37 30 32 37 37 36 36 40 40 42 56 62 62 50 32 32 30 29 31 31 28 29 27 26 26 23 23 24 24
46 44 42 43 39 36 30 26 26 31 38 40 42 47 45 47 43 44 42 44 39 41 38 41 43 56 51 36 29 29 27 31 31 31 28 28 24 23 23 22 24 25 25
60 57 56 53 48 41 37 35 36 38 40 44 47 46 46 40 38 46 44 45 47 44 46 43 47 51 38 19 19 29 31 34 22 30 26 24 18 14 17 18 21 23 23
69 68 65 62 53 44 39 39 38 39 43 46 44 41 32 33 37 46 42 43 47 49 50 47 50 41 21 15 17 25 35 27 23 21 18 12 15 10 11 13 15 18 21
74 73 67 61 55 51 48 45 43 44 46 45 42 40 39 38 40 39 42 43 47 49 47 45 44 31 26 20 17 17 21 24 24 27 20 12 10 7 13 15 15 18 19
72 71 64 61 60 57 55 51 50 48 47 48 43 44 44 40 39 36 42 47 51 48 44 44 40 32 27 21 20 21 26 22 21 21 21 13 12 6 6 7 14 16 14
71 71 69 67 65 64 63 57 52 51 49 52 44 43 44 42 39 42 45 49 53 45 40 41 39 32 26 27 24 22 21 19 17 18 22 20 16 7 1 1 8 6 5
Wind_Direction_500mb
215 215 217 218 219 220 224 230 241 242 237 232 226 220 224 231 245 267 299 306 313 313 313 309 305 301 296 299 287 284 281 283 287 272 265 267 268 266 272 278 277 264 254
219 223 225 224 225 230 233 240 245 242 243 245 242 238 237 247 249 264 288 299 316 319 319 315 306 298 296 298 306 297 282 282 281 281 267 266 269 271 267 273 275 270 260
222 225 230 233 234 233 241 245 247 251 252 253 251 253 251 257 260 270 280 306 322 317 321 322 318 307 295 295 292 297 290 280 276 281 275 267 268 270 269 268 269 267 263
227 228 231 233 235 243 242 242 245 253 255 264 261 261 266 264 265 272 277 292 301 313 323 337 331 320 303 290 290 286 286 280 274 276 280 273 267 269 269 271 269 270 265
231 231 235 238 238 240 248 252 252 255 259 266 273 273 278 281 280 277 287 293 295 306 312 358 1 345 320 295 283 279 284 283 275 276 278 280 274 270 269 269 269 267 265
233 233 235 240 244 247 249 250 254 257 260 264 274 281 291 296 289 283 293 302 299 339 331 16 357 11 350 312 288 280 281 276 272 272 277 284 274 276 270 269 270 268 266
234 246 247 244 245 246 247 249 253 254 260 262 269 284 294 307 295 275 262 327 300 15 33 27 354 343 352 340 317 297 284 277 273 272 278 277 279 274 269 269 268 268 267
235 228 241 245 251 252 250 250 253 252 249 248 256 296 333 337 358 1 296 318 272 320 332 309 323 330 348 342 321 305 290 280 275 273 278 275 274 271 268 272 267 265 267
229 226 229 237 239 249 248 243 244 246 237 246 238 235 153 159 313 340 321 332 331 325 314 304 298 314 327 331 320 297 281 276 276 271 273 272 269 268 270 278 270 268 270
234 239 249 242 235 244 249 234 221 226 232 255 245 243 234 224 297 301 294 301 317 318 313 316 308 303 316 328 316 298 278 269 276 272 269 268 268 263 267 278 275 271 274
236 240 244 241 240 248 270 264 243 213 235 273 264 292 285 272 260 269 286 294 297 286 306 303 305 303 315 316 315 319 295 272 277 273 263 261 268 264 266 273 277 277 278
237 242 247 250 259 254 264 269 258 254 253 259 263 272 271 271 273 260 269 286 286 295 299 303 293 293 296 299 293 299 297 269 275 267 262 258 265 262 266 271 276 280 281
236 241 245 251 252 245 230 245 245 254 234 232 249 262 270 273 278 266 269 283 286 296 304 299 295 294 300 282 291 308 295 271 274 260 262 261 262 262 264 271 274 276 281
236 242 245 245 240 237 238 246 251 254 237 238 246 260 265 269 270 263 271 283 294 294 294 289 286 279 288 284 284 306 293 275 272 260 264 263 262 263 266 274 277 277 279
237 238 236 236 238 235 231 231 232 231 230 237 243 248 257 263 269 271 271 272 277 285 285 295 277 283 280 276 277 297 279 281 272 263 264 261 260 264 274 281 280 280 275
223 225 223 219 215 215 216 218 223 228 229 233 239 244 252 257 265 266 269 275 274 279 280 295 291 294 298 299 295 288 270 271 270 260 258 259 261 274 285 284 283 277 272
211 210 209 206 202 201 201 200 203 210 216 226 242 250 255 262 264 272 279 279 283 296 286 291 294 306 310 310 297 284 256 260 261 244 255 264 278 282 284 283 280 273 262
206 206 204 202 197 185 177 177 191 216 235 248 263 277 278 284 284 285 287 284 295 282 292 279 304 308 304 303 289 259 247 250 247 247 262 278 286 285 281 280 275 262 252
199 199 199 200 200 202 205 211 217 232 249 264 276 282 286 289 285 290 293 285 276 267 275 279 296 294 294 295 275 258 242 243 248 253 266 283 286 284 279 274 265 256 251
207 215 219 214 206 203 207 215 232 256 268 276 279 280 281 279 285 290 285 283 276 277 275 278 274 281 286 283 263 260 248 247 254 253 261 282 287 286 279 266 258 253 253
210 217 212 209 212 216 221 237 258 276 288 291 289 286 279 274 277 282 286 283 284 273 267 273 277 277 280 280 265 268 258 250 254 254 265 283 284 288 279 264 261 254 252
218 218 218 218 219 225 239 256 271 283 292 299 299 295 284 266 266 282 279 271 273 280 272 272 271 273 278 255 261 280 262 255 238 255 266 271 273 281 286 277 262 248 251
224 222 219 218 225 234 249 262 272 280 293 304 298 290 272 265 282 292 283 275 276 271 271 274 269 270 249 229 261 282 260 244 236 251 256 245 274 258 290 278 252 245 252
221 215 215 222 228 239 251 260 269 280 295 306 296 279 268 274 286 295 291 287 284 279 271 260 252 229 224 237 259 265 230 228 243 252 245 240 255 249 290 293 271 264 260
214 216 220 230 238 243 249 257 270 282 291 302 291 270 266 271 288 292 293 291 289 278 277 257 212 210 225 258 268 241 222 226 230 232 243 219 250 229 292 249 274 272 271
227 226 231 236 241 246 250 257 266 279 289 301 290 262 256 264 283 286 292 296 288 280 271 216 200 217 236 249 244 218 223 219 220 245 246 222 223 224 76 331 3 239 253
Wind_Speed_850mb
62 57 53 47 43 38 33 27 22 18 15 16 16 17 16 13 12 9 9 12 15 18 18 19 20 19 17 15 17 24 26 26 24 26 23 24 25 22 22 23 23 26 31
62 59 55 50 46 40 33 28 25 23 19 18 18 18 19 18 16 13 15 17 16 21 22 23 25 24 20 20 20 22 25 25 26 26 28 28 27 25 25 26 26 26 29
65 61 57 52 48 41 36 32 30 30 26 22 21 21 23 24 22 19 19 16 18 21 23 25 29 30 26 23 22 21 21 26 26 27 29 30 30 28 27 27 29 29 28
68 64 62 59 51 46 42 39 34 33 29 28 26 25 29 29 29 27 23 22 19 20 20 26 30 33 29 26 24 25 24 24 28 30 27 28 32 29 28 29 30 31 30
75 70 66 61 55 51 49 45 41 40 36 33 31 27 27 32 31 32 25 26 29 17 12 24 29 31 27 26 26 26 26 23 23 25 26 29 29 31 31 30 30 32 33
75 73 70 65 58 54 54 52 49 45 40 35 33 30 28 32 32 30 26 23 14 14 12 23 30 31 29 25 27 26 31 28 24 22 29 32 33 33 33 35 32 33 34
63 63 70 67 64 62 63 57 51 46 39 31 26 23 23 25 26 22 4 13 8 11 20 33 31 36 33 27 29 28 33 35 33 31 34 35 35 34 32 35 36 35 35
73 81 76 69 66 67 67 61 51 46 40 28 17 11 7 20 8 2 15 23 16 27 29 25 37 34 43 53 38 29 31 38 39 35 38 39 37 34 32 34 33 35 36
72 75 66 60 50 54 61 64 52 49 38 31 21 16 7 5 27 14 33 16 27 41 48 49 46 44 53 69 57 37 29 33 37 42 39 40 41 39 33 32 35 36 37
69 70 63 57 45 39 41 49 53 39 34 34 26 16 11 6 8 19 29 47 50 53 70 66 55 57 61 69 47 35 27 29 35 37 43 37 41 39 34 31 30 32 33
60 60 61 60 54 36 48 64 59 55 32 27 53 50 51 49 35 30 46 59 66 60 92 79 85 79 74 53 52 35 36 30 31 39 41 39 39 38 34 31 32 31 33
66 66 67 66 64 82 80 77 67 79 92 91 100 105 91 54 47 59 41 50 61 76 78 86 84 71 73 74 68 55 40 31 31 43 41 39 39 40 36 35 36 37 38
73 71 72 70 64 60 60 85 91 79 59 82 98 91 76 75 73 62 40 59 58 62 75 77 72 63 53 54 49 50 36 31 32 41 38 39 40 41 41 39 40 42 43
53 59 67 68 59 61 72 69 67 60 65 75 75 81 71 65 68 53 71 73 77 69 70 79 64 48 49 65 50 43 37 25 31 35 35 39 40 39 42 42 43 44 42
50 50 50 50 55 60 57 54 55 58 65 69 73 64 60 62 57 62 63 79 68 68 73 67 51 58 61 50 47 46 35 29 29 31 31 34 37 39 40 41 42 39 33
41 46 45 43 42 42 46 46 48 50 51 52 50 49 49 50 56 58 63 60 55 57 62 56 53 53 59 49 48 40 35 30 28 29 26 28 31 37 39 36 32 29 26
36 36 36 34 33 33 33 32 31 29 28 27 27 33 36 41 44 47 44 36 38 37 51 58 48 49 53 51 41 42 33 30 28 25 24 27 32 35 34 30 27 24 19
36 35 34 30 28 26 21 16 14 14 17 20 21 24 28 30 36 33 32 34 36 38 41 58 55 65 63 57 40 34 30 28 26 28 26 27 32 30 29 27 23 21 19
40 35 31 31 31 29 24 18 15 13 14 17 22 26 27 27 30 34 35 37 40 39 43 58 58 63 66 58 36 32 33 28 29 30 28 28 29 27 28 25 22 21 21
44 42 38 39 36 32 26 20 17 18 22 28 33 35 37 30 32 37 37 36 36 40 40 42 56 62 62 50 32 32 30 29 31 31 28 29 27 26 26 23 23 24 24
46 44 42 43 39 36 30 26 26 31 38 40 42 47 45 47 43 44 42 44 39 41 38 41 43 56 51 36 29 29 27 31 31 31 28 28 24 23 23 22 24 25 25
60 57 56 53 48 41 37 35 36 38 40 44 47 46 46 40 38 46 44 45 47 44 46 43 47 51 38 19 19 29 31 34 22 30 26 24 18 14 17 18 21 23 23
69 68 65 62 53 44 39 39 38 39 43 46 44 41 32 33 37 46 42 43 47 49 50 47 50 41 21 15 17 25 35 27 23 21 18 12 15 10 11 13 15 18 21
74 73 67 61 55 51 48 45 43 44 46 45 42 40 39 38 40 39 42 43 47 49 47 45 44 31 26 20 17 17 21 24 24 27 20 12 10 7 13 15 15 18 19
72 71 64 61 60 57 55 51 50 48 47 48 43 44 44 40 39 36 42 47 51 48 44 44 40 32 27 21 20 21 26 22 21 21 21 13 12 6 6 7 14 16 14
71 71 69 67 65 64 63 57 52 51 49 52 44 43 44 42 39 42 45 49 53 45 40 41 39 32 26 27 24 22 21 19 17 18 22 20 16 7 1 1 8 6 5
Wind_Direction_850mb
215 215 217 218 219 220 224 230 241 242 237 232 226 220 224 231 245 267 299 306 313 313 313 309 305 301 296 299 287 284 281 283 287 272 265 267 268 266 272 278 277 264 254
219 223 225 224 225 230 233 240 245 242 243 245 242 238 237 247 249 264 288 299 316 319 319 315 306 298 296 298 306 297 282 282 281 281 267 266 269 271 267 273 275 270 260
222 225 230 233 234 233 241 245 247 251 252 253 251 253 251 257 260 270 280 306 322 317 321 322 318 307 295 295 292 297 290 280 276 281 275 267 268 270 269 268 269 267 263
227 228 231 233 235 243 242 242 245 253 255 264 261 261 266 264 265 272 277 292 301 313 323 337 331 320 303 290 290 286 286 280 274 276 280 273 267 269 269 271 269 270 265
231 231 235 238 238 240 248 252 252 255 259 266 273 273 278 281 280 277 287 293 295 306 312 358 1 345 320 295 283 279 284 283 275 276 278 280 274 270 269 269 269 267 265
233 233 235 240 244 247 249 250 254 257 260 264 274 281 291 296 289 283 293 302 299 339 331 16 357 11 350 312 288 280 281 276 272 272 277 284 274 276 270 269 270 268 266
234 246 247 244 245 246 247 249 253 254 260 262 269 284 294 307 295 275 262 327 300 15 33 27 354 343 352 340 317 297 284 277 273 272 278 277 279 274 269 269 268 268 267
235 228 241 245 251 252 250 250 253 252 249 248 256 296 333 337 358 1 296 318 272 320 332 309 323 330 348 342 321 305 290 280 275 273 278 275 274 271 268 272 267 265 267
229 226 229 237 239 249 248 243 244 246 237 246 238 235 153 159 313 340 321 332 331 325 314 304 298 314 327 331 320 297 281 276 276 271 273 272 269 268 270 278 270 268 270
234 239 249 242 235 244 249 234 221 226 232 255 245 243 234 224 297 301 294 301 317 318 313 316 308 303 316 328 316 298 278 269 276 272 269 268 268 263 267 278 275 271 274
236 240 244 241 240 248 270 264 243 213 235 273 264 292 285 272 260 269 286 294 297 286 306 303 305 303 315 316 315 319 295 272 277 273 263 261 268 264 266 273 277 277 278
237 242 247 250 259 254 264 269 258 254 253 259 263 272 271 271 273 260 269 286 286 295 299 303 293 293 296 299 293 299 297 269 275 267 262 258 265 262 266 271 276 280 281
236 241 245 251 252 245 230 245 245 254 234 232 249 262 270 273 278 266 269 283 286 296 304 299 295 294 300 282 291 308 295 271 274 260 262 261 262 262 264 271 274 276 281
236 242 245 245 240 237 238 246 251 254 237 238 246 260 265 269 270 263 271 283 294 294 294 289 286 279 288 284 284 306 293 275 272 260 264 263 262 263 266 274 277 277 279
237 238 236 236 238 235 231 231 232 231 230 237 243 248 257 263 269 271 271 272 277 285 285 295 277 283 280 276 277 297 279 281 272 263 264 261 260 264 274 281 280 280 275
223 225 223 219 215 215 216 218 223 228 229 233 239 244 252 257 265 266 269 275 274 279 280 295 291 294 298 299 295 288 270 271 270 260 258 259 261 274 285 284 283 277 272
211 210 209 206 202 201 201 200 203 210 216 226 242 250 255 262 264 272 279 279 283 296 286 291 294 306 310 310 297 284 256 260 261 244 255 264 278 282 284 283 280 273 262
206 206 204 202 197 185 177 177 191 216 235 248 263 277 278 284 284 285 287 284 295 282 292 279 304 308 304 303 289 259 247 250 247 247 262 278 286 285 281 280 275 262 252
199 199 199 200 200 202 205 211 217 232 249 264 276 282 286 289 285 290 293 285 276 267 275 279 296 294 294 295 275 258 242 243 248 253 266 283 286 284 279 274 265 256 251
207 215 219 214 206 203 207 215 232 256 268 276 279 280 281 279 285 290 285 283 276 277 275 278 274 281 286 283 263 260 248 247 254 253 261 282 287 286 279 266 258 253 253
210 217 212 209 212 216 221 237 258 276 288 291 289 286 279 274 277 282 286 283 284 273 267 273 277 277 280 280 265 268 258 250 254 254 265 283 284 288 279 264 261 254 252
218 218 218 218 219 225 239 256 271 283 292 299 299 295 284 266 266 282 279 271 273 280 272 272 271 273 278 255 261 280 262 255 238 255 266 271 273 281 286 277 262 248 251
224 222 219 218 225 234 249 262 272 280 293 304 298 290 272 265 282 292 283 275 276 271 271 274 269 270 249 229 261 282 260 244 236 251 256 245 274 258 290 278 252 245 252
221 215 215 222 228 239 251 260 269 280 295 306 296 279 268 274 286 295 291 287 284 279 271 260 252 229 224 237 259 265 230 228 243 252 245 240 255 249 290 293 271 264 260
214 216 220 230 238 243 249 257 270 282 291 302 291 270 266 271 288 292 293 291 289 278 277 257 212 210 225 258 268 241 222 226 230 232 243 219 250 229 292 249 274 272 271
227 226 231 236 241 246 250 257 266 279 289 301 290 262 256 264 283 286 292 296 288 280 271 216 200 217 236 249 244 218 223 219 220 245 246 222 223 224 76 331 3 239 253